This is the latest recevied weather packets stored in our database for station/object YT1XN-8. If no packets are shown the sender has not sent any weather packets the latest 1 day(s).
| Time | Temp. | Humidity | Pressure | Rain* | Wind** | Luminosity | Snow |
|---|---|---|---|---|---|---|---|
| 1778031700 | 14.44° C | 68% | 1014.1 hPa | 0 mm | - | - | - |
| 1778031642 | 14.44° C | 68% | 1014.2 hPa | 0 mm | - | - | - |
| 1778030439 | 14.44° C | 69% | 1014 hPa | 0 mm | - | - | - |
| 1778029841 | 15° C | 66% | 1013.9 hPa | 0 mm | - | - | - |
| 1778029779 | 15° C | 66% | 1013.8 hPa | 0 mm | - | - | - |
| 1778029240 | 15° C | 66% | 1013.9 hPa | 0 mm | - | - | - |
| 1778029119 | 15° C | 66% | 1013.8 hPa | 0 mm | - | - | - |
| 1778028640 | 15° C | 66% | 1013.7 hPa | 0 mm | - | - | - |
| 1778028459 | 15° C | 66% | 1013.9 hPa | 0 mm | - | - | - |
| 1778028040 | 15° C | 67% | 1013.7 hPa | 0 mm | - | - | - |
| 1778027799 | 15.56° C | 66% | 1013.7 hPa | 0 mm | - | - | - |
| 1778027139 | 15.56° C | 67% | 1013.7 hPa | 0 mm | - | - | - |
| 1778026479 | 15.56° C | 68% | 1013.7 hPa | 0 mm | - | - | - |
| 1778025819 | 16.11° C | 67% | 1013.7 hPa | 0 mm | - | - | - |
| 1778023179 | 16.11° C | 66% | 1013.7 hPa | 0 mm | - | - | - |
| 1778021860 | 16.67° C | 64% | 1013.7 hPa | 0 mm | - | - | - |
| 1778019880 | 17.22° C | 63% | 1013.9 hPa | 0 mm | - | - | - |
| 1778019220 | 17.22° C | 63% | 1013.9 hPa | 0 mm | - | - | - |
| 1778019042 | 17.22° C | 63% | 1014 hPa | 0 mm | - | - | - |
| 1778018560 | 16.67° C | 63% | 1014 hPa | 0 mm | - | - | - |
| 1778017900 | 16.67° C | 63% | 1014 hPa | 0 mm | - | - | - |
| 1778017841 | 16.67° C | 62% | 1014 hPa | 0 mm | - | - | - |
| 1778017240 | 17.22° C | 61% | 1014 hPa | 0 mm | - | - | - |
| 1778016580 | 17.78° C | 58% | 1014 hPa | 0 mm | - | - | - |
| 1778015920 | 17.78° C | 55% | 1014.1 hPa | 0 mm | - | - | - |
* Rain latest hour (hover to see other rain measurements)
** Current wind speed in m/s (hover to see current wind gust speed)